Temp
-6 -6 -6 -6 -6 -6 -6 -6 -6 -6 -6 -6 -6 -6 -6 -7 -7 -7 -7 -7 -7 -7 -7 -7 -7 -7 -7 -7 -7 -7 -7 -7 -7 -7 -7 -7 -7 -7 -7 -7 -7 -7
-6 -6 -6 -6 -6 -6 -6 -6 -6 -6 -6 -6 -6 -7 -7 -7 -7 -7 -7 -7 -7 -7 -7 -7 -7 -7 -7 -7 -7 -7 -7 -7 -7 -7 -7 -7 -7 -7 -7 -7 -7 -7
-6 -6 -6 -6 -6 -6 -6 -6 -6 -6 -6 -6 -6 -7 -7 -7 -7 -7 -7 -7 -7 -7 -7 -7 -7 -7 -7 -6 -6 -7 -7 -7 -7 -7 -7 -7 -7 -7 -7 -7 -7 -7
-6 -6 -6 -6 -6 -6 -6 -6 -6 -6 -6 -6 -6 -7 -7 -7 -7 -7 -7 -7 -7 -7 -7 -7 -7 -7 -7 -6 -6 -6 -6 -6 -6 -7 -7 -7 -7 -7 -7 -7 -7 -7
-6 -6 -6 -6 -6 -6 -6 -6 -6 -6 -6 -6 -6 -6 -6 -7 -7 -7 -7 -7 -7 -7 -7 -7 -7 -6 -6 -6 -6 -6 -6 -6 -6 -6 -6 -7 -7 -7 -7 -7 -7 -7
-6 -6 -6 -6 -6 -6 -6 -6 -7 -7 -7 -7 -6 -6 -7 -7 -7 -7 -7 -6 -6 -6 -6 -7 -7 -6 -6 -6 -6 -6 -6 -6 -6 -6 -6 -6 -6 -6 -6 -6 -7 -7
-6 -6 -6 -6 -6 -6 -6 -6 -7 -7 -7 -7 -7 -7 -7 -7 -7 -7 -7 -6 -6 -6 -6 -6 -7 -6 -6 -6 -6 -6 -6 -6 -6 -6 -6 -6 -6 -6 -6 -6 -6 -6
-6 -6 -6 -6 -6 -6 -6 -6 -6 -7 -7 -7 -7 -7 -7 -7 -7 -7 -7 -7 -6 -6 -6 -6 -6 -6 -6 -7 -7 -7 -6 -6 -6 -6 -6 -6 -6 -6 -6 -6 -6 -6
-6 -6 -6 -6 -6 -6 -6 -6 -6 -6 -6 -7 -7 -7 -7 -7 -7 -7 -7 -6 -6 -6 -6 -6 -6 -6 -6 -6 -6 -7 -7 -7 -6 -6 -6 -6 -6 -6 -6 -6 -6 -6
-6 -6 -6 -6 -6 -6 -6 -6 -6 -6 -6 -6 -6 -7 -7 -7 -7 -7 -7 -6 -6 -6 -6 -6 -6 -6 -6 -6 -6 -6 -7 -7 -7 -7 -7 -6 -6 -6 -6 -6 -6 -6
-6 -6 -6 -6 -6 -6 -6 -6 -6 -6 -6 -6 -6 -6 -6 -7 -7 -7 -7 -7 -6 -6 -6 -6 -6 -6 -6 -6 -6 -7 -7 -7 -7 -7 -7 -7 -7 -7 -7 -7 -7 -6
-6 -6 -6 -6 -6 -6 -6 -6 -6 -6 -6 -6 -6 -6 -6 -6 -6 -6 -6 -6 -7 -7 -7 -7 -6 -6 -6 -6 -7 -7 -7 -7 -7 -7 -7 -7 -7 -7 -7 -7 -7 -7
-6 -6 -6 -6 -6 -6 -6 -6 -6 -6 -6 -6 -6 -6 -6 -6 -6 -6 -6 -6 -6 -7 -7 -7 -7 -7 -7 -7 -7 -7 -7 -7 -7 -7 -7 -7 -7 -7 -7 -7 -7 -7
-7 -7 -6 -6 -6 -6 -6 -6 -6 -6 -6 -6 -6 -6 -6 -6 -6 -6 -6 -6 -6 -7 -7 -7 -7 -7 -7 -7 -7 -7 -7 -7 -7 -7 -7 -7 -7 -7 -7 -7 -7 -7
-7 -7 -7 -7 -7 -7 -6 -6 -6 -6 -6 -6 -6 -6 -6 -6 -6 -6 -6 -6 -7 -7 -7 -7 -7 -7 -7 -7 -7 -6 -6 -7 -7 -7 -7 -7 -7 -6 -6 -7 -7 -7
-7 -7 -7 -6 -6 -6 -6 -6 -6 -7 -7 -6 -6 -6 -6 -6 -6 -6 -6 -6 -6 -7 -7 -7 -7 -7 -7 -7 -6 -6 -6 -6 -6 -6 -6 -6 -6 -6 -6 -6 -6 -6
-7 -7 -7 -7 -6 -6 -6 -6 -6 -6 -6 -6 -6 -6 -6 -6 -6 -6 -6 -6 -6 -6 -6 -6 -7 -7 -6 -6 -6 -6 -6 -6 -6 -6 -6 -6 -6 -6 -6 -6 -6 -6
-7 -7 -7 -7 -7 -6 -6 -6 -6 -6 -6 -6 -6 -6 -6 -6 -6 -6 -6 -6 -6 -6 -6 -6 -6 -6 -6 -6 -6 -6 -6 -6 -6 -6 -6 -6 -6 -6 -7 -7 -7 -7
-6 -7 -7 -7 -7 -7 -6 -6 -6 -6 -7 -7 -7 -6 -6 -6 -6 -6 -6 -6 -6 -6 -6 -6 -6 -6 -6 -6 -6 -6 -6 -6 -6 -6 -6 -6 -6 -6 -7 -7 -7 -7
-7 -7 -7 -7 -7 -7 -7 -6 -6 -6 -7 -7 -7 -7 -7 -7 -7 -7 -7 -7 -7 -7 -7 -7 -7 -6 -6 -6 -6 -6 -6 -6 -6 -6 -6 -6 -6 -6 -7 -7 -7 -7
-7 -7 -7 -7 -7 -7 -7 -7 -7 -6 -7 -7 -7 -7 -7 -7 -7 -7 -7 -7 -7 -7 -6 -6 -6 -6 -6 -6 -6 -6 -6 -6 -6 -6 -6 -6 -6 -7 -7 -7 -7 -7
-7 -7 -7 -7 -7 -6 -7 -7 -7 -7 -7 -7 -7 -7 -7 -7 -7 -7 -7 -7 -7 -7 -6 -6 -6 -6 -6 -6 -6 -6 -6 -6 -6 -6 -6 -6 -7 -7 -6 -6 -7 -7
-7 -7 -7 -7 -7 -6 -6 -7 -7 -7 -7 -7 -7 -7 -8 -8 -7 -7 -7 -7 -7 -7 -7 -7 -7 -6 -6 -6 -6 -6 -6 -6 -6 -7 -7 -7 -7 -7 -7 -7 -7 -7
-7 -7 -7 -7 -7 -6 -6 -6 -7 -7 -7 -7 -7 -7 -8 -7 -7 -8 -7 -7 -7 -7 -7 -7 -7 -7 -7 -6 -6 -6 -6 -6 -6 -7 -7 -7 -7 -7 -7 -7 -7 -7
-7 -7 -7 -7 -7 -7 -6 -7 -7 -7 -7 -7 -7 -7 -7 -7 -7 -7 -7 -7 -7 -7 -7 -6 -6 -7 -7 -7 -7 -6 -6 -6 -6 -6 -6 -6 -7 -7 -7 -7 -7 -7
-7 -7 -8 -8 -7 -7 -7 -7 -7 -7 -8 -8 -7 -7 -7 -7 -7 -7 -7 -7 -7 -7 -7 -6 -6 -7 -7 -7 -7 -6 -6 -6 -6 -6 -6 -6 -6 -6 -7 -7 -7 -7
Height
5927 5927 5927 5928 5929 5929 5929 5930 5931 5931 5932 5932 5933 5934 5934 5935 5936 5936 5937 5937 5937 5938 5938 5938 5939 5939 5940 5940 5941 5941 5941 5941 5942 5942 5942 5943 5943 5943 5943 5944 5944 5944
5926 5927 5927 5928 5928 5928 5929 5929 5930 5930 5931 5932 5932 5933 5934 5934 5935 5936 5936 5937 5937 5938 5938 5938 5938 5939 5940 5940 5941 5941 5941 5941 5942 5942 5942 5943 5943 5943 5944 5944 5944 5944
5926 5926 5927 5927 5927 5928 5928 5928 5929 5930 5931 5931 5932 5932 5933 5934 5935 5935 5936 5936 5937 5937 5938 5938 5938 5939 5939 5940 5940 5940 5941 5941 5941 5942 5942 5942 5942 5943 5943 5944 5944 5944
5924 5925 5926 5927 5927 5927 5928 5928 5928 5929 5930 5930 5931 5932 5932 5933 5934 5934 5935 5936 5936 5936 5937 5937 5938 5938 5939 5939 5940 5940 5940 5941 5941 5942 5942 5942 5942 5942 5943 5943 5943 5943
5923 5924 5925 5926 5927 5927 5927 5928 5928 5929 5929 5930 5931 5931 5932 5932 5933 5934 5934 5935 5935 5936 5936 5937 5937 5938 5938 5939 5939 5940 5940 5941 5941 5941 5942 5942 5942 5942 5942 5942 5942 5943
5922 5923 5924 5925 5926 5926 5927 5927 5928 5928 5929 5929 5930 5931 5931 5932 5933 5933 5934 5934 5935 5935 5936 5936 5937 5937 5937 5938 5939 5939 5940 5940 5941 5941 5941 5941 5942 5942 5942 5942 5942 5942
5920 5921 5922 5923 5924 5925 5926 5927 5927 5928 5928 5929 5930 5930 5931 5931 5932 5932 5933 5933 5934 5935 5935 5936 5936 5937 5937 5937 5938 5939 5939 5940 5940 5941 5941 5941 5941 5941 5941 5941 5942 5942
5918 5919 5920 5921 5922 5923 5924 5925 5926 5926 5927 5928 5928 5929 5930 5930 5931 5931 5932 5933 5933 5934 5935 5935 5936 5936 5937 5937 5938 5938 5939 5939 5939 5940 5940 5941 5941 5941 5941 5941 5941 5941
5916 5917 5918 5919 5920 5921 5922 5923 5924 5925 5926 5926 5927 5928 5929 5929 5930 5930 5931 5932 5932 5933 5934 5934 5935 5936 5936 5937 5937 5938 5938 5939 5939 5939 5939 5940 5940 5940 5940 5941 5941 5941
5914 5915 5916 5917 5918 5919 5920 5921 5922 5923 5924 5925 5926 5927 5927 5928 5928 5929 5930 5931 5931 5932 5933 5933 5934 5935 5935 5936 5937 5937 5938 5938 5938 5938 5939 5939 5939 5939 5939 5940 5940 5940
5911 5913 5914 5915 5915 5916 5917 5919 5920 5921 5922 5923 5924 5925 5925 5926 5927 5928 5928 5929 5930 5931 5931 5932 5933 5934 5934 5935 5936 5936 5937 5937 5938 5938 5938 5938 5938 5938 5939 5939 5939 5939
5908 5910 5911 5912 5913 5914 5915 5916 5918 5919 5920 5921 5922 5923 5923 5925 5925 5926 5927 5927 5928 5929 5930 5931 5932 5932 5933 5934 5934 5935 5935 5936 5936 5936 5937 5937 5937 5938 5938 5938 5938 5938
5905 5907 5908 5909 5910 5911 5912 5914 5915 5916 5918 5919 5920 5920 5921 5923 5924 5924 5925 5925 5926 5927 5928 5929 5930 5931 5931 5932 5933 5933 5933 5934 5934 5935 5935 5935 5936 5936 5937 5937 5937 5937
5903 5904 5905 5906 5907 5909 5910 5911 5913 5914 5915 5917 5918 5919 5919 5920 5921 5922 5923 5923 5924 5925 5926 5927 5928 5928 5929 5930 5930 5931 5931 5932 5932 5933 5933 5933 5934 5934 5935 5935 5935 5936
5900 5901 5901 5902 5904 5905 5907 5909 5910 5911 5912 5914 5915 5916 5917 5917 5918 5919 5921 5921 5922 5922 5923 5925 5926 5926 5926 5927 5928 5928 5929 5930 5930 5931 5931 5932 5932 5932 5933 5933 5933 5934
5897 5898 5899 5899 5900 5902 5903 5905 5906 5907 5909 5910 5911 5913 5913 5914 5915 5916 5917 5918 5919 5920 5921 5922 5923 5923 5923 5924 5925 5926 5927 5927 5928 5928 5929 5930 5930 5931 5931 5931 5931 5931
5894 5895 5895 5896 5897 5898 5899 5901 5903 5904 5905 5906 5907 5909 5910 5911 5912 5913 5914 5915 5916 5917 5918 5919 5919 5920 5920 5921 5923 5923 5924 5925 5925 5926 5926 5927 5928 5928 5929 5929 5929 5929
5888 5890 5890 5891 5893 5895 5897 5898 5900 5902 5903 5904 5905 5906 5906 5907 5909 5910 5911 5912 5913 5914 5915 5916 5916 5917 5917 5918 5919 5920 5921 5921 5922 5923 5923 5924 5925 5925 5926 5926 5927 5927
5884 5885 5886 5887 5889 5893 5895 5896 5897 5897 5898 5900 5902 5904 5905 5906 5907 5908 5908 5909 5910 5911 5913 5914 5914 5914 5915 5915 5916 5916 5917 5918 5919 5919 5920 5921 5921 5922 5922 5923 5924 5924
5879 5882 5883 5884 5887 5890 5890 5892 5893 5894 5894 5895 5897 5900 5902 5903 5904 5905 5905 5906 5906 5907 5908 5910 5910 5911 5911 5912 5912 5913 5914 5915 5915 5916 5917 5917 5918 5918 5919 5919 5920 5920
5876 5878 5880 5883 5886 5887 5886 5887 5889 5890 5891 5892 5893 5896 5898 5899 5900 5901 5902 5903 5903 5904 5904 5905 5906 5906 5907 5907 5908 5909 5910 5911 5912 5913 5914 5914 5915 5915 5916 5916 5916 5917
5872 5875 5877 5879 5882 5883 5883 5883 5884 5886 5888 5890 5891 5892 5894 5895 5896 5897 5898 5899 5900 5901 5902 5903 5903 5903 5903 5904 5904 5905 5907 5908 5909 5909 5910 5911 5912 5912 5912 5913 5913 5913
5869 5871 5873 5875 5877 5878 5879 5879 5880 5882 5884 5886 5887 5888 5890 5891 5892 5892 5893 5894 5895 5897 5899 5900 5901 5902 5902 5902 5902 5903 5904 5904 5905 5905 5905 5906 5907 5908 5909 5909 5909 5909
5866 5867 5869 5871 5872 5873 5875 5876 5877 5878 5879 5881 5882 5883 5885 5886 5887 5888 5888 5889 5892 5894 5895 5896 5898 5898 5899 5899 5899 5900 5900 5901 5901 5901 5902 5902 5903 5904 5905 5906 5905 5904
5862 5863 5865 5867 5868 5868 5871 5873 5874 5874 5875 5876 5878 5879 5881 5882 5883 5885 5886 5887 5889 5890 5890 5891 5893 5894 5894 5894 5895 5895 5896 5897 5897 5897 5898 5898 5899 5900 5900 5901 5901 5900
5859 5860 5861 5862 5863 5864 5867 5869 5870 5871 5871 5872 5874 5876 5877 5878 5879 5881 5883 5883 5885 5886 5886 5887 5888 5889 5890 5890 5890 5890 5891 5891 5892 5893 5894 5894 5895 5895 5895 5895 5895 5896
Wind_Speed
13 13 13 13 12 12 11 11 11 11 11 11 11 10 10 9 9 8 8 8 8 8 8 8 7 6 6 6 6 6 6 6 6 6 6 6 5 5 5 5 5 4
13 13 13 13 13 13 12 11 11 11 11 11 11 10 10 10 10 9 9 9 8 8 8 8 8 8 7 7 6 6 6 6 6 7 7 6 6 6 6 5 5 5
14 14 14 14 13 13 12 11 11 11 10 11 11 11 11 11 11 10 10 10 10 9 9 9 8 8 7 7 7 7 7 7 7 7 7 7 7 7 6 6 6 6
16 15 14 13 13 12 12 11 11 11 11 11 11 12 12 12 12 11 11 11 11 11 11 10 9 8 8 8 8 8 8 7 7 7 7 7 7 7 7 7 7 7
17 16 15 13 13 13 12 12 12 11 11 11 11 12 12 12 12 12 11 11 11 11 11 11 10 9 9 8 8 8 8 8 7 7 7 7 7 8 8 7 7 7
18 17 16 15 14 14 13 13 12 11 11 11 11 11 11 12 13 12 12 11 11 10 10 10 10 9 9 9 8 8 8 8 8 7 7 7 7 8 8 8 7 8
20 19 18 17 16 15 14 13 13 13 12 12 11 11 11 12 12 12 12 11 10 10 10 10 10 9 9 9 9 9 9 8 8 8 8 8 8 8 8 8 8 8
22 21 20 19 18 17 16 15 15 15 14 14 13 13 13 13 13 12 12 12 11 10 10 10 10 10 10 10 10 10 10 9 9 9 9 9 9 9 9 8 8 8
24 24 23 22 21 20 19 18 18 18 17 17 16 15 15 14 14 14 13 13 12 11 11 11 11 11 11 10 10 10 10 10 10 10 9 9 9 9 9 9 9 9
25 25 25 24 24 24 22 22 21 20 20 19 18 18 17 17 16 16 15 14 13 13 13 12 12 12 11 11 10 11 11 11 11 11 10 10 10 10 10 10 9 9
27 27 26 26 26 26 25 24 23 22 22 21 21 20 20 19 19 18 17 16 16 15 14 14 13 13 12 12 12 12 12 12 12 12 11 11 11 11 11 10 10 9
29 28 28 28 28 27 26 25 25 24 24 23 22 22 22 21 21 20 19 19 18 17 17 16 15 15 14 14 13 13 13 13 13 13 13 13 13 12 12 12 11 10
30 30 30 30 30 30 28 27 26 25 25 24 24 24 23 23 22 22 22 21 20 20 19 19 18 17 17 16 16 16 15 15 15 14 14 14 14 13 13 13 13 12
29 30 31 31 31 31 30 28 28 27 26 25 25 25 24 24 24 24 24 23 22 22 22 21 20 20 20 19 19 19 18 17 17 16 16 16 15 14 13 14 14 14
28 28 30 30 31 31 31 30 29 28 28 27 26 26 26 26 26 25 25 25 25 25 24 23 22 23 23 22 22 21 20 19 19 19 19 18 17 16 15 15 15 15
27 27 28 29 30 30 30 30 30 30 29 28 28 29 29 29 28 27 26 27 27 27 26 25 25 25 26 25 24 23 22 21 21 21 20 20 19 18 18 17 17 17
29 29 29 29 29 29 29 29 29 29 30 30 31 31 31 31 31 29 29 29 29 28 28 27 27 27 27 26 25 24 24 23 23 23 22 21 20 20 19 19 19 19
33 32 32 31 30 30 29 27 26 27 28 29 30 31 32 33 32 30 30 30 30 29 29 28 28 28 28 27 26 26 26 25 25 24 23 22 21 21 21 21 20 21
35 34 33 33 33 32 30 27 26 27 27 27 28 29 31 31 30 30 29 29 29 29 29 28 29 29 29 28 28 27 27 27 26 25 24 23 22 22 22 22 22 22
35 34 33 34 34 33 31 29 28 28 28 28 28 29 29 29 29 29 29 29 29 29 29 29 29 29 29 29 28 29 28 28 27 26 25 24 24 23 23 23 24 24
36 34 34 33 32 31 31 30 30 31 30 29 29 29 29 29 28 27 27 28 29 29 29 29 29 29 29 28 28 28 28 28 27 26 25 25 25 24 24 25 26 26
35 35 36 36 34 33 33 32 32 33 32 31 29 29 31 30 28 27 27 28 29 29 29 29 29 28 28 28 28 28 28 27 27 27 26 26 25 25 26 27 28 28
35 35 36 36 36 35 36 35 34 35 35 34 33 32 32 32 31 30 30 30 29 28 28 28 29 28 28 28 28 28 28 27 28 28 28 28 27 26 26 27 28 29
30 31 33 33 32 31 32 34 34 35 37 38 37 35 34 35 34 34 34 33 31 30 30 31 30 30 30 30 29 29 29 30 30 30 30 30 30 29 28 28 30 32
26 28 29 29 28 26 27 29 30 31 33 36 37 36 35 35 36 36 36 35 33 33 34 35 34 34 34 33 33 33 33 33 33 33 33 32 32 32 32 32 33 35
24 24 24 25 26 25 24 25 25 25 26 28 29 30 30 31 33 35 36 36 36 36 36 37 36 36 37 36 36 36 37 36 36 36 35 35 35 35 36 37 37 37
Wind_Direction
206 203 196 194 194 193 194 196 194 191 190 190 189 187 184 184 188 190 189 189 188 186 183 182 184 184 180 181 183 184 186 188 186 189 192 192 194 196 199 197 195 203
208 209 204 201 199 198 200 202 200 199 199 198 197 195 192 193 197 198 200 205 206 204 202 198 195 192 191 192 189 187 194 195 190 191 193 195 202 206 207 209 203 208
204 209 209 206 205 203 203 204 203 204 205 206 205 202 201 203 206 207 207 211 214 215 213 210 208 205 202 202 201 198 201 204 203 202 201 204 210 214 218 223 223 225
201 205 209 209 207 206 205 204 205 207 210 211 210 209 210 210 212 214 213 214 217 219 217 213 213 216 215 211 209 208 209 213 216 218 219 219 223 226 229 234 240 244
201 203 206 208 209 208 206 204 204 207 210 213 213 213 217 217 216 217 217 218 220 222 222 219 215 215 218 218 217 216 216 217 221 226 230 233 235 238 242 245 249 254
202 202 204 206 210 213 212 209 207 207 207 211 214 214 216 218 218 219 220 222 223 224 225 227 226 221 217 217 219 222 224 223 224 228 231 236 240 245 250 253 255 256
202 203 204 205 209 215 218 217 215 213 210 210 212 213 216 219 221 223 225 228 229 228 228 231 236 234 227 222 220 222 227 229 231 234 236 238 243 249 255 258 260 260
205 205 206 207 211 215 219 221 223 221 218 216 214 214 218 223 225 228 230 232 234 234 234 236 239 241 239 235 232 229 230 231 232 237 242 245 248 254 258 261 263 264
209 209 210 210 213 216 219 222 225 226 223 222 219 218 219 222 227 232 234 235 236 236 238 240 241 243 243 243 243 243 241 239 237 238 241 246 251 258 263 266 269 273
213 213 213 213 214 216 218 220 224 227 227 226 224 222 221 222 225 231 235 237 237 236 238 242 244 246 247 247 247 248 248 248 247 247 247 248 251 255 260 266 271 278
217 216 216 216 217 217 218 219 222 225 228 229 228 226 225 224 225 228 231 234 236 237 239 241 245 248 250 250 249 249 251 251 252 253 254 255 257 258 260 263 268 273
220 219 219 219 220 219 219 219 221 224 227 228 229 229 229 227 227 227 229 230 233 236 239 242 245 247 248 249 249 249 249 250 251 253 254 254 256 259 262 265 267 269
224 223 222 223 224 224 222 220 221 223 225 228 229 230 230 231 230 230 229 230 231 233 236 239 243 247 248 249 249 249 249 249 249 251 253 253 254 256 261 267 270 272
228 226 225 225 226 227 226 224 224 224 225 228 229 230 230 231 232 232 232 232 233 234 236 237 240 244 246 247 248 250 250 251 251 251 254 256 256 256 259 264 268 272
233 230 228 227 226 227 227 226 226 226 227 228 229 230 230 230 231 233 233 234 235 236 237 238 239 241 243 244 245 247 249 251 252 253 254 256 259 259 259 260 262 267
236 235 233 231 228 226 226 226 226 226 227 227 229 231 231 230 230 231 233 234 235 236 237 238 238 240 241 243 245 247 248 249 251 253 255 257 259 261 261 262 263 264
233 235 235 235 233 228 226 227 228 228 227 227 228 230 231 232 231 230 231 233 235 236 237 238 240 241 243 245 247 248 249 250 252 254 256 258 260 261 263 265 266 266
230 231 232 231 231 231 231 231 231 232 232 232 232 232 233 234 234 233 233 234 237 238 238 239 240 242 244 246 247 248 249 251 252 255 257 260 261 261 261 263 266 268
231 231 231 229 226 226 229 233 233 232 232 234 237 238 238 238 238 238 238 238 240 241 241 242 242 243 244 245 247 248 250 251 253 254 257 260 263 265 265 265 266 269
233 231 231 231 228 223 222 227 232 232 227 225 230 237 240 239 237 237 237 237 238 239 239 240 241 243 245 246 248 250 251 252 253 254 255 258 261 264 264 263 264 268
233 231 231 232 233 228 221 222 229 233 228 223 226 234 238 238 237 237 236 236 235 236 236 236 236 237 240 243 246 248 250 252 253 254 255 257 259 263 264 264 266 269
233 233 232 235 238 236 229 225 227 231 232 228 227 231 236 238 238 238 238 238 238 238 239 239 239 239 239 239 240 243 246 249 252 254 256 258 260 262 263 265 268 271
232 232 233 239 243 240 234 231 230 230 231 231 229 229 232 236 238 239 238 238 238 239 241 243 246 247 247 245 243 243 244 245 248 251 255 259 260 261 264 268 271 274
226 228 232 238 242 238 236 238 237 234 234 235 236 234 231 232 236 239 241 242 242 243 244 245 248 251 251 250 249 248 247 247 248 249 252 257 260 263 266 268 270 272
225 231 232 234 235 234 234 237 236 234 235 237 239 240 238 237 237 237 240 244 246 247 247 248 250 251 252 253 253 254 254 253 253 253 254 256 259 262 266 267 267 270
225 233 234 233 233 233 233 233 232 231 233 235 237 239 241 243 242 240 241 245 247 249 250 251 251 251 252 254 255 257 258 258 259 260 260 261 261 263 266 268 268 268